Regional Weather Roundup
Issued by NWS

Home | Current Version | Previous Version | Graphics & Text | Print | Product List | Glossary On
Versions: 1 2 3 4 5 6 7 8 9 10 11 12 13 14 15 16 17 18 19 20 21 22 23 24 25 26 27
000
ASUS45 KBOU 172007
RWRCO

WEATHER ROUNDUP FOR COLORADO
NATIONAL WEATHER SERVICE DENVER/BOULDER CO
200 PM MDT TUE OCT 17 2017

NOTE: "FAIR" INDICATES FEW OR NO CLOUDS BELOW 12000 FEET WITH NO
SIGNIFICANT WEATHER AND/OR OBSTRUCTIONS TO VISIBILITY.

COZ001>005-013-030-031-172100-
...NORTHWEST COLORADO...

CITY           SKY/WX    TMP DP  RH WIND       PRES   REMARKS
CRAIG          FAIR      68   6   9 NW8       30.27F
HAYDEN         FAIR      63  10  12 W3        30.30F
MEEKER         FAIR      68   4   8 W9        30.28F
RABBIT EARS PA FAIR      48   9  20 W7G20     30.47F
STEAMBOAT SPGS FAIR      62   8  11 SW8       30.30F
WALDEN         FAIR      61   5  11 SW15      30.33F
$$

COZ006>008-011-172100-
...WEST CENTRAL VALLEYS...

CITY           SKY/WX    TMP DP  RH WIND       PRES   REMARKS
GRAND JUNCTION FAIR      65  14  14 CALM      30.27F
MONTROSE       FAIR      65  16  15 VRB5      30.30F
EAGLE          FAIR      61  11  14 CALM      30.31F
RIFLE          FAIR      64   8  11 NW5       30.28F
DELTA          FAIR      69  13  11 SW3       30.27F
NUCLA          FAIR      68   9  10 N7        30.34F
$$

COZ017>023-064>068-172100-
...SOUTHWEST COLORADO...

CITY           SKY/WX    TMP DP  RH WIND       PRES   REMARKS
DURANGO        FAIR      66  13  12 VRB5      30.32F
CORTEZ         FAIR      68  11  11 SW10      30.30F
PAGOSA SPRINGS FAIR      65   8  10 SW5       30.36F
TELLURIDE      FAIR      64  -9   5 W9        30.45F
WOLF CREEK PAS FAIR      48  10  21 SW12      30.62F
$$

COZ009-010-012-014-032>034-037-058>063-172100-
...CENTRAL COLORADO...

CITY           SKY/WX    TMP DP  RH WIND       PRES   REMARKS
ASPEN          FAIR      65   2   8 VRB5      30.34F
BUENA VISTA    FAIR      66  -3   6 CALM      30.32F
COPPER MTN     FAIR      46 -17   6 W20G29    30.56S
BERTHOUD PASS  FAIR      36  28  75 NW10G17   30.56F
COTTONWOOD PAS FAIR      66  -9   4 E6        30.43F
GUNNISON       FAIR      60   7  12 CALM      30.37F
KREMMLING      FAIR      66   0   7 SE8       30.33F
LEADVILLE      FAIR      57  -9   6 NW15G24   30.43F
MONARCH PASS   FAIR      45   1  16 SW15G22   30.67F
SALIDA         NOT AVBL
SUNLIGHT       FAIR      52   3  14 SW9G18    30.54F
WILKERSON PASS FAIR      52  -2  11 W3        30.53F
$$

COZ069>075-172100-
...SAN LUIS VALLEY/SANGRE DE CRISTO MOUNTAINS...

CITY           SKY/WX    TMP DP  RH WIND       PRES   REMARKS
ALAMOSA        FAIR      64   8  11 S8        30.34F
DEL NORTE      FAIR      64  14  14 E7        30.36F
LA VETA PASS   FAIR      55  10  16 S23G29    30.55F
SAGUACHE       FAIR      64  12  13 S10G17    30.35F
$$

COZ035-036-038>040-172100-
...NORTHERN COLORADO FRONT RANGE...

CITY           SKY/WX    TMP DP  RH WIND       PRES   REMARKS
DENVER INTL AP FAIR      75   9   8 SE3       30.15F
DMNS CITY PARK   N/A     78   7   6 SW2G12    30.13F
AURORA         MOSUNNY   74   4   6 CALM      30.16F
FRONT RANGE AP MOSUNNY   75   7   7 CALM      30.16F
ERIE MUNI ARPT FAIR      76  11   8 E5        30.18F
BOULDER MUN AP FAIR      75  21  13 CALM      30.13F
CENTENNIAL     FAIR      73  -3   5 VRB5      30.17F
BROOMFIELD     NOT AVBL
FORT COLLINS   FAIR      73  26  17 S7        30.13F
LONGMONT       FAIR      77  27  15 E3        30.13F
$$

COZ041-046-047-076>085-087-088-172100-
...PIKES PEAK/PALMER DIVIDE AND SOUTHERN FOOTHILLS...

CITY           SKY/WX    TMP DP  RH WIND       PRES   REMARKS
COLO. SPRINGS  FAIR      71  12  10 S9        30.21F
A. F. ACADEMY  FAIR      71  10   9 SE10      30.21F
SCHRIEVER AFB  FAIR      70  10   9 SW3       30.21F
CHEYENNE MTN   FAIR      68  12  11 S12G20    30.19F
ELLICOTT       FAIR     N/A N/A N/A SW10G18   30.20F
FALCON         FAIR      70  10   9 S10G20    30.25F
FORT CARSON    FAIR      73   5   7 E6        30.18F
LIMON          FAIR      74  14  10 S12G22    30.16F
MONUMENT HILL  FAIR      68   7   9 CALM      30.25F
CANON CITY     SUNNY     81   3   5 CALM      30.14F
WALSENBURG     FAIR      77  16  10 CALM      30.18F
TRINIDAD       FAIR      75  14  10 CALM      30.19F
$$

COZ042>045-048>051-090-091-172100-
...NORTHEAST COLORADO...

CITY           SKY/WX    TMP DP  RH WIND       PRES   REMARKS
GREELEY ARPT   FAIR      75  24  15 VRB3      30.13F
AKRON          FAIR      77  15   9 S15       30.12F
BURLINGTON     FAIR      80  21  11 SE13G20   30.12F
WRAY           FAIR      81  19  10 S7        30.10F
YUMA           NOT AVBL
STERLING       FAIR      79  19  11 SW15      30.07F
HOLYOKE        FAIR      81  21  11 S13       30.08F
FORT MORGAN    FAIR      79  12   8 SW6       30.11F
$$

COZ086-089-092>099-172100-
...SOUTHEAST COLORADO...

CITY           SKY/WX    TMP DP  RH WIND       PRES   REMARKS
PUEBLO         FAIR      77  14   9 SE6       30.12F
LA JUNTA       FAIR      77  25  14 SE5       30.11F
LAMAR          FAIR      78  27  15 VRB5      30.08F
SPRINGFIELD      N/A     75  31  19 NE7       30.11F
$$




USA.gov is the U.S. government's official web portal to all federal, state and local government web resources and services.